414  
ASUS41 KLWX 141712  
RWRLWX  
 
REGIONAL WEATHER ROUNDUP  
NATIONAL WEATHER SERVICE BALTIMORE MD/WASHINGTON DC  
100 PM EDT FRI AUG 14 2020  
 
NOTE: "FAIR" INDICATES FEW OR NO CLOUDS BELOW 12,000 FEET  
WITH NO SIGNIFICANT WEATHER AND/OR S TO VISIBILITY
.  
TC=TEMPERATURE CELSIUS  
 
* =NON NWS SITE. STATION DOES NOT REPORT PRECIPITATION (E.G. RAIN,  
SNOW, ETC.), THUNDER, OR FOG.
 
 
DCZ001-MDZ009-015-VAZ040>042-051-053>054-141800-  
WASHINGTON METRO  
 
CITY SKY/WX TMP DP RH WIND PRES REMARKS
 
WASHINGTON NAT PTSUNNY 84 72 67 NE7 29.97F  
DULLES PTSUNNY 86 72 62 NE9 29.99F HX 92  
ANDREWS AFB MOSUNNY 82 71 69 NE8 29.97F  
FT BELVOIR MOSUNNY 85 72 65 NE3 29.97F HX 90  
QUANTICO PTSUNNY 85 71 63 NE13 29.97F HX 90  
COLLEGE PARK* MOSUNNY 82 69 62 N6 29.96F  
LEESBURG* PTSUNNY 81 70 69 NE5 30.01F  
MANASSAS* CLOUDY 82 72 71 NE7 29.99S  
GAITHERSBURG* MOSUNNY 82 71 69 VRB5 30.01F  
 

 
 
MDZ006>007-011-014-141800-  
BALTIMORE METRO  
 
CITY SKY/WX TMP DP RH WIND PRES REMARKS
 
BWI AIRPORT PTSUNNY 84 71 65 N7 29.96F  
MARTIN STATE PTSUNNY 82 77 83 CALM 29.98F HX 91  
ANNAPOLIS MOSUNNY 83 74 74 N8 29.96F  
ABERDEEN* PTSUNNY 85 73 66 E8 29.96S HX 92  
FORT MEADE* MOSUNNY 82 72 69 N6 29.99F  
 

 
 
MDZ012-015-019>023-141800-  
MARYLAND EASTERN SHORE  
 
CITY SKY/WX TMP DP RH WIND PRES REMARKS
 
OCEAN CITY MOSUNNY 81 73 76 NE14G21 29.93F  
SALISBURY PTSUNNY 85 73 67 NE14G21 29.93F HX 91  
BAY BRIDGE AP* PTSUNNY N/A N/A N/A N10 29.96F  
EASTON* RAIN 82 75 78 N8 29.99S  
 

 
 
MDZ017>025-141800-  
SOUTHERN MARYLAND  
 
CITY SKY/WX TMP DP RH WIND PRES REMARKS
 
PATUXENT RIVER PTSUNNY 84 77 79 N10 29.94F HX 94  
ST INIGOES PTSUNNY 86 77 74 NE7 29.93F HX 97  
LEONARDTOWN* PTSUNNY 79 72 78 N5 29.96F  
 

 
 
MDZ003>005-141800-  
NORTH CENTRAL MARYLAND  
 
CITY SKY/WX TMP DP RH WIND PRES REMARKS
 
FREDERICK* PTSUNNY 86 70 58 E7 30.00F HX 90  
HAGERSTOWN APT CLOUDY 82 68 61 NE9 30.01F  
WESTMINSTER* PTSUNNY 84 70 61 NE5 30.01F  
 

 
 
MDZ501>502-141800-  
WESTERN MARYLAND  
 
CITY SKY/WX TMP DP RH WIND PRES REMARKS
 
OAKLAND* MOSUNNY 73 61 64 SE6 30.12S  
CUMBERLAND* MOSUNNY 82 67 62 NE5 30.06F  
 

 
 
VAZ025>031-141800-  
SHENANDOAH VALLEY  
 
CITY SKY/WX TMP DP RH WIND PRES REMARKS
 
WINCHESTER* PTSUNNY 79 68 69 E5 30.01S  
FRONT ROYAL* PTSUNNY 81 70 69 NE5 30.01F  
LURAY* MOSUNNY 79 70 73 CALM 30.02F  
NEW MARKET* NOT AVBL  
STAUNTON* PTSUNNY 81 70 69 N6 30.05F  
WAYNESBORO* CLOUDY 76 70 80 CALM 30.04F  
 

 
 
WVZ021-048>050-054>055-141800-  
EASTERN WEST VIRGINIA PANHANDLE  
 
CITY SKY/WX TMP DP RH WIND PRES REMARKS
 
MARTINSBURG PTSUNNY 85 68 56 NE7 30.00F  
PETERSBURG* NOT AVBL  
 

 
 
VAZ036>039-050-141800-  
CENTRAL FOOTHILLS  
 
CITY SKY/WX TMP DP RH WIND PRES REMARKS
 
CHARLOTTESVILL PTSUNNY 83 71 67 NE9 29.99F  
CULPEPER* PTSUNNY 83 72 69 N5 29.99F  
ORANGE* MOSUNNY 82 72 69 NE9 29.99S  
GORDONSVILLE* PTSUNNY 80 73 81 N7 29.99S  
WARRENTON* CLOUDY 82 71 69 N6 29.99F  
 

 
 
VAZ055>057-141800-  
NORTH AND CENTRAL PIEDMONT  
 
CITY SKY/WX TMP DP RH WIND PRES REMARKS
 
FREDERICKSBRG* PTSUNNY 84 74 71 NE9 29.96F HX 92  
STAFFORD* CLOUDY 84 72 67 CALM 30.01S  
 

 
 
NCZ024-NYZ072-PAZ021-071-VAZ022-071-141800-  
OTHER REGIONAL OBSERVATIONS  
 
CITY SKY/WX TMP DP RH WIND PRES REMARKS
 
NEW YORK CITY N/A 85 64 49 NE7 30.04S  
PHILADELPHIA PTSUNNY 84 70 62 NE14G22 29.97F  
PITTSBURGH PTSUNNY 85 59 41 SE6 30.03F  
ROANOKE CLOUDY 80 71 74 CALM 30.04F  
RICHMOND PTSUNNY 80 75 84 N6 29.95F  
RALEIGH PTSUNNY 83 72 69 CALM 29.98F  
 

 
 
ANZ530>537-141800-  
MARINE OBSERVATIONS  
 
STATION/POSITION TIME TEMP WIND PRES
 
AIR SEA DIR/SP/G  
(UTC) (F) (DEG/KT/KT) (MB)  
THOMAS PT LIGHT 1700 80 83 340/ 12/ 13 1015.2F  
GOOSES REEF 1648 80 83 N/A  
 

 
 
 
 
CLICK HERE TO GO TO PREVIOUS BULLETINS.

The Nexlab VA Page
The Nexlab MD Page
The Nexlab WV Page Main Text Page